This demonstration page uses our WeatherBlox Daily Observations layout. Learn more.

38.88101, -77.10428

Hourly Observations for October 14, 2017

Temp ( °F °C ) Dew Point ( °F °C ) Humidity (%) Winds ( mph kmh ) Pressure ( in mb ) Visibility ( mi km ) Precip ( " mm )
12:03 am 00:03 Cloudy 63 17.2 62 16.7 97 97 NNE 7 11 30.3 1026 10 16.0934 0 0
12:52 am 00:52 Cloudy 63 17.2 62 16.7 97 97 NNE 6 9 30.27 1025 10 16.0934 0 0
1:52 am 01:52 Cloudy 63 17.2 62 16.7 97 97 NNE 8 13 30.27 1025 10 16.0934 0 0
2:05 am 02:05 Cloudy 64 17.8 62 16.7 93 93 NNE 6 9 30.27 1025 10 16.0934 0 0
2:52 am 02:52 Cloudy 64 17.8 62 16.7 93 93 N 8 13 30.25 1025 10 16.0934 0 0
3:52 am 03:52 Cloudy 64 17.8 62 16.7 93 93 N 8 13 30.24 1024 10 16.0934 0 0
4:52 am 04:52 Cloudy 63 17.2 62 16.7 97 97 N 8 13 30.25 1024 10 16.0934 0 0
5:38 am 05:38 Cloudy 63 17.2 61 16.1 93 93 NNW 9 15 30.27 1025 10 16.0934 0 0
5:52 am 05:52 Cloudy 63 17.2 61 16.1 93 93 NNW 7 11 30.26 1025 10 16.0934 0 0
6:52 am 06:52 Cloudy 63 17.2 61 16.1 93 93 NNW 7 11 30.26 1025 10 16.0934 0 0
7:20 am 07:20 Cloudy 62 16.7 61 16.1 96 96 NNW 8 13 30.27 1025 10 16.0934 0 0
7:52 am 07:52 Cloudy 63 17.2 61 16.1 93 93 NNW 6 9 30.26 1025 10 16.0934 0 0
8:20 am 08:20 Cloudy 63 17.2 61 16.1 93 93 NNW 6 9 30.27 1025 10 16.0934 0 0
8:52 am 08:52 Cloudy 64 17.8 61 16.1 90 90 NNW 7 11 30.27 1025 10 16.0934 0 0
9:00 am 09:00 Cloudy 64 17.8 61 16.1 90 90 N 6 9 30.27 1025 10 16.0934 0 0
9:52 am 09:52 Cloudy 65 18.3 62 16.7 90 90 N 7 11 30.28 1025 10 16.0934 0 0
10:52 am 10:52 Cloudy 66 18.9 61 16.1 84 84 N 6 9 30.28 1025 10 16.0934 0 0
11:52 am 11:52 Cloudy 66 18.9 62 16.7 87 87 NNW 7 11 30.27 1025 10 16.0934 0 0
12:52 pm 12:52 Cloudy 68 20 62 16.7 81 81 N 5 7 30.26 1025 10 16.0934 0 0
1:20 pm 13:20 Cloudy 67 19.4 62 16.7 84 84 undefined N/A 30.24 1024 10 16.0934 0 0
1:52 pm 13:52 Cloudy 68 20 62 16.7 81 81 Calm 30.22 1024 10 16.0934 0 0
2:52 pm 14:52 Cloudy 69 20.6 62 16.7 78 78 NNW 3 6 30.2 1023 10 16.0934 0 0
3:52 pm 15:52 Mostly Cloudy 69 20.6 62 16.7 78 78 ESE 3 6 30.19 1022 10 16.0934 0 0
4:52 pm 16:52 Partly Cloudy 69 20.6 62 16.7 78 78 Calm 30.18 1022 10 16.0934 0 0
5:52 pm 17:52 Partly Cloudy 69 20.6 62 16.7 78 78 S 5 7 30.18 1022 10 16.0934 0 0
6:46 pm 18:46 Mostly Cloudy 66 19 63 17 88 88 S 5 7 30.18 1022 10 16.0934 0 0
6:52 pm 18:52 Mostly Cloudy 67 19.4 62 16.7 84 84 SSE 3 6 30.19 1022 10 16.0934 0 0
7:52 pm 19:52 Mostly Cloudy 66 18.9 62 16.7 87 87 SE 6 9 30.2 1023 10 16.0934 0 0
8:17 pm 20:17 Partly Cloudy 65 18.3 63 17.2 93 93 SSE 6 9 30.21 1023 10 16.0934 0 0
8:52 pm 20:52 Partly Cloudy 65 18.3 63 17.2 93 93 SSE 7 11 30.19 1023 10 16.0934 0 0
9:05 pm 21:05 Partly Cloudy 65 18.3 63 17.2 93 93 SSE 6 9 30.21 1023 10 16.0934 0 0
9:13 pm 21:13 Mostly Cloudy 65 18.3 63 17.2 93 93 SSE 7 11 30.21 1023 10 16.0934 0 0
9:52 pm 21:52 Cloudy 66 18.9 63 17.2 90 90 SSE 7 11 30.19 1022 10 16.0934 0 0
10:16 pm 22:16 Cloudy 66 18.9 64 17.8 93 93 SSE 8 13 30.21 1023 10 16.0934 0 0
10:52 pm 22:52 Cloudy 66 18.9 64 17.8 93 93 S 6 9 30.19 1022 10 16.0934 0 0
11:36 pm 23:36 Cloudy 65 18.3 63 17.2 93 93 SSW 7 11 30.18 1022 10 16.0934 0 0
11:52 pm 23:52 Cloudy 65 18.3 63 17.2 93 93 S 6 9 30.18 1022 10 16.0934 0 0

Powered by AerisWeather